星链-35300(STARLINK-35300)

导读

STARLINK-35330是美国于2025年9月26日发射的星链系列卫星,隶属于SpaceX公司打造的星链星座网络。星链项目旨在构建覆盖全球的低轨卫星互联网系统,为全球各个区域提供高速宽带接入服务。该卫星延续星链卫星的标准化设计,进一步扩充了星链星座的规模,助力全球卫星互联网覆盖能力提升。

Basic Information
目录编号:
65791
目录名称:
STARLINK-35330
国际标识:
2025-218A
轨道中心:
EARTH
卫星名称:
星链-35300
卫星全名:
星链-35300(STARLINK-35300)
卫星状态:
在轨 (已飞行343 天)
发射日期:
2025-09-26 UTC
国别 :
美国 (US)
星等 :
--
Orbit Information
数据来源 国际轨道数据
星历时间: 2026-09-04T04:00:02+0800
9小时前
查看轨道信息
半长轴: 6859.477km
偏心率: 0.0000889
轨道倾角: 97.285°
近地点辐角 74.820°
升交点赤经 104.395°
平近点角 28.189°
近地点: 480.73km
远地点: 481.95km
周期: 94.232分钟
每日圈数: 15.28151
Detailed Information
固有亮度:
5
最大亮度:
2.5
卫星平台:
Starlink V1.0
覆盖范围:
全球
运营商:
太空探索技术公司
运营商所在国:
美国
制造商(研发单位):
太空探索技术公司
制造商所在国:
美国
使用方式:
暂无
Satellite Introduction
Starlink 计划是 SpaceX 推出的全球卫星互联网项目,通过发射低轨道卫星,为全球尤其是偏远地区提供高速、低延迟的互联网服务。自 2019 年起,Starlink 已部署数千颗卫星,旨在缩小全球数字鸿沟,推动互联网普及。该项目还为军事、航空等行业提供通信支持,带来广泛经济效益。
2D Orbit Map
3D Orbit Map
Orbit Altitude Analysis Chart
Orbit Inclination Analysis Chart
Orbit Comprehensive Analysis Chart
View Comprehensive Chart
Conjunction Data List
Event ID Objects TCA Miss Dist (km) Collision Risk Probability Collision Risk Index (CRI) Action
CDM_260903-180805-744806-579121
2026-09-03T
18:08:51+0000
0.698 km
远距离
8.004278E-5 中风险 0.73
CDM_260903-180906-249106-579121
2026-09-03T
18:09:59+0000
0.755 km
远距离
5.900333E-5 中风险 0.7
CDM_260903-163406-579106-784021
2026-09-03T
16:34:53+0000
1.285 km
极远距离
1.035747E-5 中风险 0.55
CDM_260903-220506-249106-579121
2026-09-03T
22:05:35+0000
1.559 km
极远距离
5.12656E-6 低风险 0.49
CDM_260904-195406-579106-804021
2026-09-04T
19:54:07+0000
2.331 km
极远距离
2.002576E-6 低风险 0.41
CDM_260830-153205-455306-579121
2026-08-30T
15:32:11+0000
2.606 km
极远距离
1.536084E-6 低风险 0.39
CDM_260904-010906-328506-579121
2026-09-04T
01:09:52+0000
2.788 km
极远距离
1.425086E-6 低风险 0.38
CDM_260903-202606-401006-579121
2026-09-03T
20:26:25+0000
2.326 km
极远距离
1.37277E-6 低风险 0.38
CDM_260904-204106-579106-804021
2026-09-04T
20:41:03+0000
2.992 km
极远距离
1.340865E-6 低风险 0.38
CDM_260903-203106-249106-579121
2026-09-03T
20:31:21+0000
2.894 km
极远距离
1.23867E-6 低风险 0.37